Tracking 29892 objects as of 21-Nov-2024
HD Live streaming from Space Station
objects crossing your sky now

FENGYUN 1C DEB

Track FENGYUN 1C DEB now!
10-day predictions


NORAD ID: 31714
Int'l Code: 1999-025CDM
Perigee: 688.2 km
Apogee: 742.0 km
Inclination: 99.0 °
Period: 98.9 minutes
Semi major axis: 7086 km
RCS: 0.0102 m2 (small)
Launch date: May 10, 1999
Source: People's Republic of China (PRC)
Launch site: Taiyaun Space Center, China (TSC)

Note: This is SATELLITE DEBRIS
Your satellite tracking list
Your tracking list is empty




NASA's NSSDC Master Catalog

Two Line Element Set (TLE):
1 31714U 99025CDM 24326.09898527  .00030005  00000-0  68192-2 0  9992
2 31714  99.0417 178.7694 0037972  42.2007 109.8534 14.55433488904281
Source of the keplerian elements: AFSPC